Voltar ao catálogo

KUIPER-00218

AtivoComunicaçõesLEO
NORAD 67780·PAYLOAD·🇺🇸 United States

Lançado Feb 12, 2026 de Vandenberg Space Force Base

Loading…

Próximas Passagens (próximas 24 horas)

TLE

AtualizadoSource: CelesTrak SupGP

Época: Sep 14, 2026, 14:45 UTC

1 67780C 26030S   26257.61487269 -.00002757  00000+0 -36094-3 0  2578
2 67780  51.8963  90.1592 0000788 107.4928 106.9393 14.79931219    10

Acompanhe KUIPER-00218 em tempo real com AllMySat

Download on the App Store